St.-Hubert, Quebec

12:04 PM EST on December 18, 2017 (GMT -0500)
St.-Hubert

Weather History for CYHU - October, 2012

Change the Weather History Date:

Tuesday, October 9, 2012

  Actual Average Record
Temperature  
Mean Temperature 46 °F -  
Max Temperature 60 °F 52 °F 75 °F (2011)
Min Temperature 32 °F 34 °F 32 °F (2001)
Degree Days  
Heating Degree Days 19    
Moisture  
Dew Point 38 °F    
Average Humidity 68    
Maximum Humidity 93    
Minimum Humidity 34    
Precipitation  
Precipitation 0.00 in 0.11 in - ()
Sea Level Pressure  
Sea Level Pressure 30.20 in    
Wind  
Wind Speed 5 mph ()    
Max Wind Speed 16 mph    
Max Gust Speed 20 mph    
Visibility 9.1 miles    
Events      
Averages and records for this station are not official NWS values.
T = Trace of Precipitation, MM = Missing Value Source: Averaged Metar Reports

Daily Weather History Graph

Daily Weather History Graph

Search for Another Location

Airport or City:

Trip Planner

Search our weather history database for the weather conditions in past years. The results will help you decide how hot, cold, wet, or windy it might be!

Date:

Astronomy

Oct. 09, 2012 Rise Set
Actual Time 7:02 AM EDT 6:18 PM EDT
Civil Twilight 6:33 AM EDT 6:47 PM EDT
Nautical Twilight 5:58 AM EDT 7:21 PM EDT
Astronomical Twilight 5:24 AM EDT 7:56 PM EDT
Moon 12:19 AM EDT (10/9) 2:59 PM EDT (10/9)
Length of Visible Light 12h 14m
Length of Day
11h 15m
Last Quarter, 37% of the Moon is Illuminated
Oct 9
Last Quarter
Oct 15
New
Oct 21
First Quarter
Oct 29
Full
Nov 6
Last Quarter

Hourly Weather History & Observations

Time (EDT) Temp. Windchill Dew Point Humidity Pressure Visibility Wind Dir Wind Speed Gust Speed Precip Events Conditions
12:00 AM 39.2 °F - 33.8 °F 81% 30.28 in 9.0 mi SE 2.3 mph - N/A   Clear
2:00 AM 39 °F - 34 °F 77% 30.28 in 10 mi SE 3.5 mph - -  
2:00 AM 39.2 °F 37.0 °F 33.8 °F 81% 30.28 in 9.0 mi SE 3.5 mph - N/A   Clear
3:00 AM 37.4 °F - 33.8 °F 87% 30.27 in 9.0 mi Calm Calm - N/A   Clear
4:00 AM 35.6 °F - 33.8 °F 93% 30.27 in 9.0 mi Variable 2.3 mph - N/A   Clear
5:00 AM 33.8 °F - 32.0 °F 93% 30.27 in 9.0 mi ESE 2.3 mph - N/A   Clear
6:00 AM 35.6 °F - 33.8 °F 93% 30.28 in 9.0 mi Calm Calm - N/A   Clear
7:00 AM 33.8 °F - 30.2 °F 87% 30.29 in 9.0 mi Calm Calm - N/A   Clear
8:00 AM 36 °F - 33 °F 86% 30.28 in 10 mi SE 3.5 mph - -  
8:00 AM 35.6 °F 32.8 °F 33.8 °F 93% 30.28 in 9.0 mi SE 3.5 mph - N/A   Clear
9:00 AM 44.6 °F 41.4 °F 37.4 °F 76% 30.29 in 9.0 mi SSE 5.8 mph - N/A   Clear
10:00 AM 50.0 °F - 39.2 °F 66% 30.28 in 9.0 mi SSE 9.2 mph - N/A   Clear
11:00 AM 55.4 °F - 41.0 °F 58% 30.26 in 9.0 mi SSE 10.4 mph - N/A   Clear
12:00 PM 55.4 °F - 41.0 °F 58% 30.24 in 9.0 mi South 16.1 mph - N/A   Scattered Clouds
1:00 PM 57.2 °F - 41.0 °F 55% 30.21 in 9.0 mi SSE 15.0 mph - N/A   Scattered Clouds
2:00 PM 59 °F - 38 °F 34% 30.17 in 10 mi South 8.1 mph - -  
2:00 PM 59.0 °F - 37.4 °F 45% 30.17 in 9.0 mi SSW 8.1 mph - N/A   Clear
3:00 PM 59.0 °F - 37.4 °F 45% 30.15 in 9.0 mi SSE 11.5 mph 17.3 mph N/A   Clear
4:00 PM 59.0 °F - 37.4 °F 45% 30.14 in 9.0 mi South 16.1 mph - N/A   Clear
5:00 PM 59.0 °F - 39.2 °F 48% 30.13 in 9.0 mi South 12.7 mph 19.6 mph N/A   Mostly Cloudy
6:00 PM 55.4 °F - 41.0 °F 58% 30.11 in 9.0 mi SSE 11.5 mph 17.3 mph N/A   Partly Cloudy
7:00 PM 55.4 °F - 41.0 °F 58% 30.10 in 9.0 mi SSE 11.5 mph - N/A   Overcast
8:00 PM 55 °F - 42 °F 51% 30.09 in 10 mi SSE 10.4 mph - -   Overcast
8:00 PM 55.4 °F - 41.0 °F 58% 30.09 in 9.0 mi SSE 9.2 mph - N/A   Overcast
9:00 PM 53.6 °F - 42.8 °F 67% 30.08 in 9.0 mi SSE 9.2 mph - N/A   Overcast
10:00 PM 51.8 °F - 42.8 °F 71% 30.07 in 9.0 mi SSE 8.1 mph - N/A   Clear
11:00 PM 50.0 °F - 42.8 °F 76% 30.06 in 9.0 mi SSE 8.1 mph - N/A   Partly Cloudy